Regional Weather Roundup
Issued by NWS

Home | Current Version | Previous Version | Graphics & Text | Print | Product List | Glossary On
Versions: 1 2 3 4 5 6 7 8 9 10 11 12 13 14 15 16 17 18 19 20 21 22 23 24 25 26 27 28 29 30 31 32 33 34 35 36 37 38 39 40 41 42 43 44 45 46 47 48 49 50
000
ASUS45 KABQ 230201
RWRNM
NEW MEXICO REGIONAL WEATHER ROUNDUP
NATIONAL WEATHER SERVICE ALBUQUERQUE NM
700 PM MST WED NOV 22 2017

NOTE: "FAIR" MEANS FEW OR NO CLOUDS BELOW 12,000 FEET AGL WITH NO
       SIGNIFICANT WEATHER OR OBSTRUCTIONS TO VISION.

      THIS PRODUCT IS RELEASED AS TWO VERSIONS.  ONE VERSION NEAR
      THE TOP OF THE HOUR CONTAINING PRELIMINARY DATA FROM ALBUQUERQUE
      AND OTHER STATIONS.  A FINAL VERSION WITH ADDITIONAL DATA IS
      ISSUED ABOUT 10 MINUTES AFTER THE HOUR.

NMZ501-503-504-510>518-230300-
NORTHWEST PLATEAU/NORTHCENTRAL MOUNTAINS

CITY           SKY/WX    TMP DP  RH WIND       PRES   REMARKS
FARMINGTON     FAIR      48  28  46 N5        30.33R
LOS ALAMOS     FAIR      53  22  29 NW8       30.40S
SANTA FE       FAIR      47  28  47 NW7       30.35R
TAOS           FAIR      43  24  47 NW6       30.41S
ANGEL FIRE     FAIR      34  26  72 S3        30.44F

$$
NMZ402-403-502-505>509-230300-
WESTCENTRAL MOUNTAINS/SOUTHWEST MOUNTAINS

CITY           SKY/WX    TMP DP  RH WIND       PRES   REMARKS
GALLUP         FAIR      44  24  45 CALM      30.40R
GRANTS         FAIR      48  28  45 NW14G22   30.41R
SILVER CITY    FAIR      39  16  38 N3        30.34R

$$
NMZ407-409-411-412-230300-
SOUTHERN DESERTS

CITY           SKY/WX    TMP DP  RH WIND       PRES   REMARKS
DEMING         FAIR      50  19  29 N3        30.30R
LAS CRUCES     FAIR      47  21  35 CALM      30.31S
ALAMOGORDO     FAIR      54  25  32 NE7       30.30S
T OR C         FAIR      55  22  27 SW3       30.30S

$$
NMZ519>523-230300-
CENTRAL VALLEYS/CENTRAL HIGHLANDS

CITY           SKY/WX    TMP DP  RH WIND       PRES   REMARKS
ALBUQUERQUE    FAIR      52  26  36 CALM      30.33R
DOUBLE EAGLE   CLEAR     39  23  52 S5        30.35S
MORIARTY ARPT  FAIR      46  24  40 CALM      30.37R
CLINES CORNERS FAIR      45  24  43 N9        30.38R
BELEN          FAIR      50  25  37 SW5       30.33S
SOCORRO        FAIR      50  22  34 CALM      30.32R

$$
NMZ524>526-539-540-230300-
SOUTHCENTRAL MOUNTAINS

CITY           SKY/WX    TMP DP  RH WIND       PRES   REMARKS
RUIDOSO        FAIR      48  23  37 W9        30.38S

$$
NMZ527>531-230300-
NORTHEAST HIGHLANDS/NORTHEAST PLAINS

CITY           SKY/WX    TMP DP  RH WIND       PRES   REMARKS
LAS VEGAS      FAIR      41  21  44 S12       30.36R
RATON          FAIR      43  22  43 N6        30.32R
CLAYTON        FAIR      51  27  39 SW7       30.26R

$$
NMZ532>537-230300-
EASTCENTRAL PLAINS

CITY           SKY/WX    TMP DP  RH WIND       PRES   REMARKS
SANTA ROSA     FAIR      47  28  47 SE9       30.28R
TUCUMCARI      FAIR      50  30  46 W5        30.22R
CANNON AFB     FAIR      48  28  45 W6        30.27S
CLOVIS AIRPORT FAIR      43  28  55 W7        30.26S

$$
NMZ028-029-538-230300-
SOUTHEAST PLAINS

CITY           SKY/WX    TMP DP  RH WIND       PRES   REMARKS
ROSWELL        FAIR      45  27  49 SW6       30.26R
ARTESIA        FAIR      48  28  46 SE6       30.26S
CARLSBAD       FAIR      47  30  51 S6        30.25S
HOBBS          FAIR      45  27  49 W6        30.27S


$$




USA.gov is the U.S. government's official web portal to all federal, state and local government web resources and services.